Miscellaneous Local Product
Issued by NWS Hastings, NE

Home | Current Version | Previous Version | Graphics & Text | Print | Product List | Glossary On
Versions: 1 2 3 4 5 6 7 8 9 10 11 12 13 14 15 16 17 18 19 20 21 22 23 24 25 26 27 28 29 30 31 32 33 34 35 36 37 38 39 40 41 42 43 44 45 46 47 48 49 50
000
AXUS43 KGID 040402
MISGRI

GID CWA HOURLY WEATHER ROUNDUP
NATIONAL WEATHER SERVICE HASTINGS NE
1100 PM CDT MON AUG 03 2015

NOTE: "FAIR" INDICATES FEW OR NO CLOUDS BELOW 12,000 FEET WITH NO
SIGNIFICANT WEATHER AND/OR OBSTRUCTIONS TO VISIBILITY.

...SOUTH CENTRAL NEBRASKA...

CITY           SKY/WX    TMP DP  RH WIND       PRES   REMARKS
GRAND ISLAND   PTCLDY    71  64  78 E9        29.98R
HASTINGS       PTCLDY    72  67  84 MISG      29.97R
KEARNEY        MOCLDY    70  64  83 E8        29.97S
ORD            MOCLDY    70  64  81 E6        29.97S
YORK           PTCLDY    68  64  88 E7        29.98R
AURORA         PTCLDY    69  66  91 E6        29.98R
LEXINGTON      CLOUDY    73  68  84 E9        29.97S
HOLDREGE       CLOUDY    72  66  83 E8        29.97R
HEBRON         PTCLDY    74  66  76 E6        29.95R

...NEBRASKA PANHANDLE...

CITY           SKY/WX    TMP DP  RH WIND       PRES   REMARKS
CHADRON        CLOUDY    74  62  66 N5        29.91S
ALLIANCE       CLOUDY    74  64  71 S10       29.98R
SCOTTSBLUFF    MOCLDY    72  56  57 SE6       29.99R
SIDNEY         MOCLDY    73  49  42 SW16      30.04R

...WESTERN AND NORTH CENTRAL NEBRASKA...

CITY           SKY/WX    TMP DP  RH WIND       PRES   REMARKS
VALENTINE      NOT AVBL
AINSWORTH      MOCLDY    70  61  72 E8        29.99S
ONEILL         MOCLDY    72  65  77 SE5       30.00R
BROKEN BOW     PTCLDY    72  63  73 E8        29.99R
IMPERIAL       MOCLDY    74  55  51 W5        29.98R
NORTH PLATTE   CLOUDY    73  69  87 E14       29.97R
MCCOOK         CLOUDY    76  71  85 NE6       29.95R

...EASTERN NEBRASKA...

CITY           SKY/WX    TMP DP  RH WIND       PRES   REMARKS
NORFOLK        MOCLDY    68  63  84 CALM      30.00R
SO SIOUX CITY  MOCLDY    70  62  76 SE5       29.97R
TEKAMAH        CLOUDY    73  68  84 E3        29.97R
COLUMBUS       MOCLDY    64  59  82 CALM      29.99R
ALBION         CLOUDY    69  63  80 E6        29.99S
OMAHA EPPLEY   CLOUDY    74  65  73 E6        29.97R
OFFUTT AFB     CLEAR     67  66  94 NE5       29.96R
MILLARD        PTCLDY    71  66  83 CALM      29.97R
LINCOLN        MOCLDY    73  63  70 E5        29.98R
NEBRASKA CITY  MOCLDY    71  62  75 CALM      29.97R
BEATRICE       PTCLDY    73  68  85 E6        29.96R
FALLS CITY     PTCLDY    72  70  93 E3        29.94S

...NORTHERN KANSAS...

CITY           SKY/WX    TMP DP  RH WIND       PRES   REMARKS
GOODLAND       MOCLDY    73  56  54 SE7       30.01R
HILL CITY      CLOUDY    81  66  60 S9        29.93S
NORTON         CLEAR     75  61  60 E7        29.93S
PHILLIPSBURG   CLEAR     81  73  78 NE9       29.92S
SMITH CENTER   CLEAR     75  70  83 E13       29.93S
HAYS           MOCLDY    81  64  57 S10       29.94R
RUSSELL        PTCLDY    79  68  69 S9        29.92R
CONCORDIA      MOCLDY    77  72  84 E8        29.93R
SALINA         CLOUDY    81  70  69 S8        29.91S
TOPEKA         PTCLDY    78  71  79 E6        29.93R



USA.gov is the U.S. government's official web portal to all federal, state and local government web resources and services.